Weather History for Falls City, NE

Change the Weather History Date:

Monday, December 31, 2012

  Actual Average Record
Temperature  
Mean Temperature 26 °F -  
Max Temperature 33 °F 32 °F 65 °F (1965)
Min Temperature 19 °F 14 °F -13 °F (1976)
Degree Days  
Heating Degree Days 39    
Moisture  
Dew Point 18 °F    
Average Humidity 79    
Maximum Humidity 89    
Minimum Humidity 66    
Precipitation  
Precipitation 0.00 in - - ()
Sea Level Pressure  
Sea Level Pressure 30.17 in    
Wind  
Wind Speed 9 mph (NNE)    
Max Wind Speed 14 mph    
Max Gust Speed 21 mph    
Visibility 4 miles    
Events Snow    
Averages and records for this station are not official NWS values.
T = Trace of Precipitation, MM = Missing Value Source: NWS Daily Summary

Daily Weather History Graph

Daily Weather History Graph

Search for Another Location

Airport:

Trip Planner

Search our weather history database for the weather conditions in past years. The results will help you decide how hot, cold, wet, or windy it might be!

Date:

Astronomy

Dec. 31, 2012 Rise Set
Actual Time 7:44 AM CST 5:07 PM CST
Civil Twilight 7:13 AM CST 5:37 PM CST
Nautical Twilight 6:39 AM CST 6:11 PM CST
Astronomical Twilight 6:06 AM CST 6:44 PM CST
Moon 8:38 PM CST (12/31) 9:26 AM CST (12/31)
Length of Visible Light 10h 23m
Length of Day
9h 22m
Waning Gibbous, 90% of the Moon is Illuminated
Dec 31
Waning Gibbous
Jan 4
Last Quarter
Jan 11
New
Jan 18
First Quarter
Jan 26
Full

Hourly Weather History & Observations

Time (CST) Temp. Windchill Dew Point Humidity Pressure Visibility Wind Dir Wind Speed Gust Speed Precip Events Conditions
12:53 AM 33.1 °F 26.9 °F 23.0 °F 66% 30.12 in 10.0 mi West 6.9 mph - N/A   Scattered Clouds
1:53 AM 32.0 °F 25.6 °F 21.9 °F 66% 30.12 in 10.0 mi NW 6.9 mph - N/A   Overcast
2:53 AM 30.0 °F 24.1 °F 19.9 °F 66% 30.14 in 10.0 mi NNW 5.8 mph - N/A   Overcast
3:53 AM 28.0 °F 20.0 °F 18.0 °F 66% 30.13 in 10.0 mi NNW 8.1 mph - N/A   Overcast
4:53 AM 28.0 °F 21.7 °F 19.0 °F 69% 30.14 in 10.0 mi North 5.8 mph - N/A   Overcast
5:53 AM 27.0 °F 19.5 °F 18.0 °F 69% 30.13 in 10.0 mi North 6.9 mph - N/A   Overcast
6:53 AM 26.1 °F 16.8 °F 18.0 °F 71% 30.15 in 10.0 mi North 9.2 mph - N/A   Overcast
7:53 AM 24.8 °F 15.3 °F 17.6 °F 74% 30.13 in 10.0 mi NNE 9.2 mph - N/A   Overcast
8:53 AM 24.1 °F 15.2 °F 17.1 °F 75% 30.18 in 10.0 mi NNE 8.1 mph - N/A   Overcast
9:34 AM 24.8 °F 14.6 °F 17.6 °F 74% 30.17 in 1.5 mi NNE 10.4 mph - 0.00 in Snow Light Snow
9:41 AM 23.0 °F 13.1 °F 17.6 °F 80% 30.17 in 0.8 mi NNE 9.2 mph - 0.00 in Snow Light Snow
9:53 AM 23.0 °F 13.9 °F 19.0 °F 85% 30.20 in 0.8 mi NNE 8.1 mph - 0.00 in Snow Light Snow
10:15 AM 23.0 °F 13.9 °F 19.4 °F 86% 30.18 in 0.8 mi NNE 8.1 mph - 0.00 in Snow Light Snow
10:24 AM 23.0 °F 13.9 °F 19.4 °F 86% 30.18 in 1.2 mi NE 8.1 mph - 0.00 in Snow Light Snow
10:50 AM 23.0 °F 13.1 °F 17.6 °F 80% 30.20 in 2.0 mi NE 9.2 mph - 0.00 in Snow Light Snow
10:53 AM 23.0 °F 15.8 °F 18.0 °F 81% 30.23 in 2.0 mi NE 5.8 mph - 0.00 in Snow Light Snow
11:02 AM 23.0 °F 13.9 °F 19.4 °F 86% 30.19 in 1.5 mi NNE 8.1 mph - 0.00 in Snow Light Snow
11:22 AM 23.0 °F 13.1 °F 17.6 °F 80% 30.18 in 2.0 mi NNE 9.2 mph - 0.00 in Snow Light Snow
11:31 AM 23.0 °F 13.1 °F 17.6 °F 80% 30.18 in 2.0 mi NNE 9.2 mph - 0.00 in Snow Light Snow
11:39 AM 23.0 °F 11.7 °F 17.6 °F 80% 30.18 in 1.5 mi NNE 11.5 mph - 0.00 in Snow Light Snow
11:53 AM 23.0 °F 12.4 °F 19.0 °F 85% 30.20 in 1.0 mi NNE 10.4 mph - 0.00 in Snow Light Snow
12:40 PM 23.0 °F 12.4 °F 19.4 °F 86% 30.14 in 0.8 mi North 10.4 mph - 0.00 in Snow Light Snow
12:53 PM 23.0 °F 10.6 °F 19.0 °F 85% 30.16 in 1.0 mi NNE 13.8 mph - 0.00 in Snow Light Snow
1:24 PM 23.0 °F 11.1 °F 19.4 °F 86% 30.10 in 2.0 mi NNE 12.7 mph - 0.00 in Snow Light Snow
1:53 PM 24.1 °F 13.1 °F 19.0 °F 81% 30.13 in 3.0 mi NNE 11.5 mph - 0.00 in Snow Light Snow
2:04 PM 24.8 °F 14.0 °F 19.4 °F 80% 30.09 in 4.0 mi NNE 11.5 mph - 0.00 in Snow Light Snow
2:48 PM 24.8 °F 13.4 °F 17.6 °F 74% 30.10 in 1.8 mi NNE 12.7 mph - 0.00 in Snow Light Snow
2:49 PM 24.1 °F 12.5 °F 18.0 °F 77% 30.14 in 1.8 mi NE 12.7 mph - 0.00 in Snow Light Snow
2:59 PM 24.8 °F 12.9 °F 19.4 °F 80% 30.10 in 1.2 mi NNE 13.8 mph 20.7 mph 0.00 in Snow Light Snow
3:15 PM 24.8 °F 14.0 °F 17.6 °F 74% 30.11 in 2.0 mi NNE 11.5 mph - 0.00 in Snow Light Snow
3:26 PM 24.8 °F 14.0 °F 17.6 °F 74% 30.11 in 3.0 mi NNE 11.5 mph - 0.00 in Snow Light Snow
3:51 PM 24.8 °F 14.0 °F 17.6 °F 74% 30.12 in 2.5 mi NNE 11.5 mph - 0.00 in Snow Light Snow
3:53 PM 24.1 °F 13.7 °F 18.0 °F 77% 30.15 in 1.8 mi NE 10.4 mph - 0.00 in Snow Light Snow
4:48 PM 23.0 °F 11.7 °F 17.6 °F 80% 30.13 in 2.5 mi NNE 11.5 mph - 0.00 in Snow Light Snow
4:53 PM 23.0 °F 12.4 °F 18.0 °F 81% 30.17 in 4.0 mi NNE 10.4 mph - 0.00 in Snow Light Snow
5:53 PM 23.0 °F 13.1 °F 18.0 °F 81% 30.19 in 5.0 mi North 9.2 mph - 0.00 in Snow Light Snow
6:48 PM 21.2 °F 9.5 °F 17.6 °F 86% 30.16 in 2.0 mi NNE 11.5 mph - 0.00 in Snow Light Snow
6:53 PM 21.9 °F 11.7 °F 18.0 °F 85% 30.20 in 1.8 mi NNE 9.2 mph - 0.00 in Snow Light Snow
7:03 PM 21.2 °F 11.7 °F 17.6 °F 86% 30.16 in 1.8 mi NNE 8.1 mph 17.3 mph 0.00 in Snow Light Snow
7:14 PM 21.2 °F 10.9 °F 17.6 °F 86% 30.17 in 2.5 mi NNE 9.2 mph - 0.00 in Snow Light Snow
7:53 PM 21.0 °F 11.4 °F 18.0 °F 88% 30.22 in 2.0 mi North 8.1 mph - 0.00 in Snow Light Snow
8:11 PM 21.2 °F 8.9 °F 17.6 °F 86% 30.18 in 1.8 mi NNE 12.7 mph - 0.00 in Snow Light Snow
8:18 PM 21.2 °F 10.1 °F 17.6 °F 86% 30.18 in 2.5 mi North 10.4 mph - 0.00 in Snow Light Snow
8:31 PM 21.2 °F 9.5 °F 17.6 °F 86% 30.18 in 3.0 mi North 11.5 mph - 0.00 in Snow Light Snow
8:53 PM 19.9 °F 7.9 °F 17.1 °F 89% 30.22 in 4.0 mi North 11.5 mph - 0.00 in Snow Light Snow
9:53 PM 19.9 °F 9.3 °F 15.1 °F 81% 30.24 in 7.0 mi NNE 9.2 mph - 0.00 in Snow Light Snow
10:53 PM 19.0 °F 10.0 °F 14.0 °F 81% 30.26 in 10.0 mi NNE 6.9 mph - 0.00 in   Scattered Clouds
11:18 PM 19.4 °F 10.4 °F 14.0 °F 80% 30.22 in 10.0 mi North 6.9 mph - N/A   Mostly Cloudy
11:53 PM 19.0 °F 10.0 °F 12.9 °F 77% 30.26 in 10.0 mi NNE 6.9 mph - N/A   Scattered Clouds